FW0019 Weather Reports


time (UTC)temp
F
wind
direction
speed
knots
gust
knots
rain 1hr
in
rain 24hr
in
rain mn
in
humidity
%
barometer
mb
20260509004503 70 103 10.4 18.2 0.00 0.00 0.00 38 878.2
20260509003001 71 107 8.7 19.1 0.00 0.00 0.00 40 878.3
20260509001600 72 123 10.4 17.4 0.00 0.00 0.00 39 878.3
20260509000059 72 134 8.7 18.2 0.00 0.00 0.00 41 878.5
20260508234558 73 170 10.4 16.5 0.00 0.00 0.00 36 878.6
20260508233125 73 111 10.4 18.2 0.00 0.00 0.00 29 878.6
20260508231558 73 138 13.0 20.0 0.00 0.00 0.00 32 878.7
20260508230058 74 85 9.6 18.2 0.00 0.00 0.00 31 878.9
20260508224615 74 104 10.4 18.2 0.00 0.00 0.00 31 878.9
20260508223054 74 85 9.6 16.5 0.00 0.00 0.00 35 879.0
20260508221553 74 149 8.7 18.2 0.00 0.00 0.00 35 879.2
20260508220055 74 98 11.3 19.1 0.00 0.00 0.00 33 879.4
20260508214553 74 113 8.7 18.2 0.00 0.00 0.00 35 879.4
20260508213052 74 166 7.8 15.6 0.00 0.00 0.00 40 879.5
20260508211551 74 167 7.8 19.1 0.00 0.00 0.00 37 879.6
20260508210051 73 83 7.0 18.2 0.00 0.00 0.00 41 879.8
20260508204553 74 115 7.8 14.8 0.00 0.00 0.00 39 879.8
20260508203055 75 119 7.8 15.6 0.00 0.00 0.00 38 879.8
20260508201548 74 112 7.8 15.6 0.00 0.00 0.00 33 879.9
20260508200059 74 162 10.4 16.5 0.00 0.00 0.00 28 879.9
20260508194547 74 148 9.6 15.6 0.00 0.00 0.00 29 880.1
20260508193047 74 130 9.6 18.2 0.00 0.00 0.00 25 880.1
20260508191552 74 130 8.7 19.1 0.00 0.00 0.00 28 880.2
20260508190045 74 132 7.0 18.2 0.00 0.00 0.00 29 880.3
20260508184550 74 106 8.7 15.6 0.00 0.00 0.00 27 880.3
20260508183045 75 126 7.8 13.0 0.00 0.00 0.00 27 880.3
20260508181542 74 162 8.7 13.9 0.00 0.00 0.00 30 880.4
20260508180040 74 137 7.8 13.9 0.00 0.00 0.00 28 880.3
20260508174547 73 115 10.4 14.8 0.00 0.00 0.00 26 880.3
20260508173037 73 86 7.8 15.6 0.00 0.00 0.00 32 880.2
20260508171537 73 121 9.6 20.0 0.00 0.00 0.00 29 880.1
20260508170039 73 119 7.8 14.8 0.00 0.00 0.00 31 880.1
20260508164534 72 134 8.7 14.8 0.00 0.00 0.00 32 880.1
20260508163032 72 109 7.0 13.9 0.00 0.00 0.00 32 880.0
20260508161529 71 101 8.7 16.5 0.00 0.00 0.00 32 880.1
20260508160028 71 137 7.8 13.0 0.00 0.00 0.00 33 880.0
20260508154536 70 128 7.0 13.0 0.00 0.00 0.00 33 879.9
20260508153024 69 98 7.0 10.4 0.00 0.00 0.00 33 880.0
20260508151529 68 137 5.2 11.3 0.00 0.00 0.00 36 880.0
20260508150024 67 114 5.2 7.8 0.00 0.00 0.00 37 879.9
20260508144514 66 157 4.3 8.7 0.00 0.00 0.00 39 879.8
20260508143011 65 116 3.5 7.0 0.00 0.00 0.00 40 879.6
20260508141516 64 110 2.6 6.1 0.00 0.00 0.00 40 879.6
20260508140009 63 107 1.7 5.2 0.00 0.00 0.00 42 879.7
20260508134600 62 163 0.9 6.1 0.00 0.00 0.00 46 879.4
20260508133103 60 121 3.5 5.2 0.00 0.00 0.00 44 879.4
20260508131559 60 109 4.3 7.0 0.00 0.00 0.00 44 879.3
20260508130111 58 80 2.6 6.1 0.00 0.00 0.00 46 879.2
20260508124557 57 138 2.6 5.2 0.00 0.00 0.00 50 879.0
20260508123101 55 105 2.6 4.3 0.00 0.00 0.00 56 879.0
20260508121629 54 114 1.7 4.3 0.00 0.00 0.00 58 879.0
20260508120056 54 121 1.7 2.6 0.00 0.00 0.00 61 879.0
20260508114556 55 129 0.9 3.5 0.00 0.00 0.00 61 879.0
20260508113054 55 121 0.9 3.5 0.00 0.00 0.00 63 878.9
20260508111552 56 124 0.9 3.5 0.00 0.00 0.00 62 878.9
20260508110047 57 136 1.7 3.5 0.00 0.00 0.00 59 879.0
20260508104552 57 123 1.7 3.5 0.00 0.00 0.00 59 879.0
20260508103045 59 115 1.7 6.1 0.00 0.00 0.00 58 879.1
20260508101545 59 115 3.5 6.1 0.00 0.00 0.00 55 879.2
20260508100038 59 137 2.6 5.2 0.00 0.00 0.00 53 879.2
20260508094544 59 113 3.5 7.0 0.00 0.00 0.00 47 879.2
20260508093034 60 117 2.6 6.1 0.00 0.00 0.00 45 879.3
20260508091546 60 141 3.5 6.1 0.00 0.00 0.00 43 879.4
20260508090042 61 123 3.5 9.6 0.00 0.00 0.00 40 879.5
20260508084528 60 103 3.5 7.0 0.00 0.00 0.00 42 879.5
20260508083026 61 144 3.5 9.6 0.00 0.00 0.00 42 879.8
20260508081532 61 131 5.2 7.8 0.00 0.00 0.00 42 879.8
20260508080026 61 150 3.5 7.8 0.00 0.00 0.00 44 879.9
20260508074519 60 146 3.5 9.6 0.00 0.00 0.00 45 880.0
20260508073017 60 134 3.5 6.1 0.00 0.00 0.00 46 880.2
20260508071522 61 136 3.5 6.1 0.00 0.00 0.00 46 880.1
20260508070014 60 136 5.2 7.8 0.00 0.00 0.00 48 880.2
20260508064519 60 140 2.6 6.1 0.00 0.00 0.00 52 880.2
20260508063014 59 110 3.5 7.0 0.00 0.00 0.00 54 880.3
20260508061517 59 149 2.6 6.1 0.00 0.00 0.00 56 880.3
20260508060020 59 157 2.6 6.1 0.00 0.00 0.00 57 880.3
20260508054512 59 143 2.6 4.3 0.00 0.00 0.00 56 880.3
20260508053011 60 114 2.6 6.1 0.00 0.00 0.00 54 880.4
20260508051510 59 136 2.6 7.8 0.00 0.00 0.00 52 880.4
20260508050010 59 138 2.6 5.2 0.00 0.00 0.00 49 880.4
20260508044510 59 147 2.6 5.2 0.00 0.00 0.00 47 880.4
20260508043014 60 134 2.6 6.1 0.00 0.00 0.00 46 880.3
20260508041509 60 159 3.5 8.7 0.00 0.00 0.00 48 880.1
20260508040008 60 114 5.2 7.8 0.00 0.00 0.00 48 880.0
20260508034508 60 101 4.3 7.0 0.00 0.00 0.00 49 879.9
20260508033008 60 109 5.2 8.7 0.00 0.00 0.00 49 879.8
20260508031506 60 134 3.5 7.0 0.00 0.00 0.00 53 879.6
20260508030007 61 123 3.5 7.8 0.00 0.00 0.00 54 879.5
20260508024507 62 113 5.2 7.8 0.00 0.00 0.00 55 879.3
20260508023006 62 134 5.2 12.2 0.00 0.00 0.00 60 879.3
20260508021505 64 123 4.3 10.4 0.00 0.00 0.00 57 879.3
20260508020112 65 150 5.2 12.2 0.00 0.00 0.00 47 879.2
20260508014504 67 162 6.1 12.2 0.00 0.00 0.00 43 879.2
20260508013004 67 117 7.0 13.0 0.00 0.00 0.00 42 879.2
20260508011502 68 96 7.0 11.3 0.00 0.00 0.00 47 879.2
20260508010002 68 128 7.0 13.0 0.00 0.00 0.00 46 879.2